Showing default

NUSAT-39 (TIKVAH ALPER), 56201

Orbit data source: Space-Track

NUSAT-39 (TIKVAH ALPER), 56201 is a payload satellite owned by URUGUS S.A. (AR) in SSO that was launched on Sat, 15 Apr 2023 UTC via an FALCON 9 launch vehicle from the Air Force Western Test Range (AFWTR). Payload-class satellites include a variety of spacecraft equipped with specific instruments for various scientific and technological missions. These include communications satellites like Starlink; space stations such as the ISS; scientific satellites like the Hubble; Earth observation satellites from companies like Planet Labs, Umbra, and HawkEye 360; GPS; miniature CubeSats for education and research; and military/defense satellites.

Loading next visibility...
Identifier
56201, 2023-054Z
Orbit
SSO
Country
Flag of ARAR / ARGN
Related business
Manufacturer
URUGUS S.A.
Mission
Operational Commercial Imaging
Bus & Motor
NEWSAT V, Unknown motor
Mass
41.5 kg wet, 38.5 kg dry
Launch date (UTC)
2023-04-15 (3 years ago)
Launch vehicle
FALCON 9
Launch site
Air Force Western Test Range (AFWTR)
Object type
Payload
Rocket body
Debris
Shape & HBR
Box, 1.0 m
Radar Cross Section
0.542 m², Medium (>0.1 m² and < 1m²)

Expand to show TLE details & history
Last TLE update: 3 hours ago

TLE from 3 hours ago
0 NUSAT-39 (TIKVAH ALPER)
1 56201U 23054Z   26133.53891301  .00015359  00000-0  32895-3 0  9996
2 56201  97.3154  43.0097 0006402 141.3916 218.7792 15.44843732173104
Epoch: 2026-05-13T12:56Z
TLE epoch observation values (Epoch: 2026-05-13T12:56:02.084Z)
Latitude
0.00004°
Longitude
-22.29648°
Altitude
438.364 km
Speed
7.647 km/s
True Right ascension
02h 52m 02s
True Declination
0° 00' 00"
Sunlit
Object was in daylight at epoch
Visualization orbit readout
Latitude
Unknown
Longitude
Unknown
Altitude
Unknown
Speed
Unknown
Apparent Right ascension
Unknown
Apparent Declination
Unknown
Sunlit
N/A
Visualization observer readout
Local Sidereal Time
00:16:36
Azimuth
Unknown
Elevation
Unknown
Doppler factor
Unknown
Orbital elements
Apogee altitude
433.124 km
Perigee altitude
424.408 km
Semi-major axis
6,806.903 km
Eccentricity
0.00064
Inclination
97.3154°
RAAN
43.0097°
Arg. of periapsis
141.3916°
True anomaly
218.73328°
Mean anomaly
218.7792°
Eccentric anomaly
218.75624°
Mean motion
3.86473 °/min
Orbital period
93.15 mins
BSTAR
0.00032895
Loading maneuver chart data...
Computing Atmospheric mass density...
Loading historical data...
Loading historical data...
Loading historical data...
Loading historical data...
Loading historical data...
Loading historical data...
Loading historical data...

Documentation

Showing up to 5 results
|